Home > Time Zones > World Clock > Weather > Norway > Moss > Past weeks

Flag for Norway Weather past 2 weeks in Moss, Norway

Now
64 °F

Partly sunny.


Feels Like: 64 °F
Forecast: 51 / 62 °F
Wind: 10 mph from Southwest

Location: Rygge

Current Time: Sep 3, 2015 at 3:01:02 PM

Latest Report: Sep 3, 2015 at 2:20 PM


Visibility: N/A

Pressure: 29.86 "Hg

Humidity: 64%

Dew point: 52 °F

Location of MossLocation

Historic Weather in Moss — Graph

°F

Moss temperature yesterday

Maximum temperature yesterday: 63 °F (at 3:20 PM)
Minimum temperature yesterday: 54 °F (at 5:20 AM)
Average temperature yesterday: 57 °F

Past Weeks' High & Low Weather Summary

 TemperatureHumidityPressure
High77 °F (Aug 23, 2:50 PM)100% (Aug 21, 5:20 AM)30.39 "Hg (Aug 21, 5:20 AM)
Low45 °F (Aug 22, 5:20 AM)32% (Aug 23, 3:20 PM)29.53 "Hg (Aug 27, 2:20 PM)
Average61 °F79%29.97 "Hg
* Reported Aug 19 1:20 PM — Sep 3 1:50 PM, Moss, Weather by CustomWeather, © 2015

Note: Actual official high and low records may vary slightly from our data, if they occured in-between our weather recording intervals... More about our weather records

Advertising

Moss weather history for previous 24 hours

 ConditionsComfort  
Time TempWeatherWind HumidityBarometerVisibility
1:50 PM
Thu, Sep 3
63 °FBroken clouds.8 mph68%29.86 "HgN/A
1:20 PM63 °FScattered clouds.10 mph68%29.86 "HgN/A
12:50 PM63 °FBroken clouds.12 mph73%29.86 "HgN/A
12:20 PM61 °FScattered clouds.10 mph77%29.86 "HgN/A
11:50 AM59 °FRain showers. Broken clouds.8 mph82%29.86 "HgN/A
11:20 AM61 °FPartly sunny.10 mph83%29.86 "HgN/A
10:50 AM59 °FScattered clouds.8 mph88%29.86 "HgN/A
10:20 AM59 °FPartly sunny.10 mph88%29.86 "HgN/A
9:50 AM57 °FPassing clouds.10 mph94%29.83 "HgN/A
9:20 AM57 °FPassing clouds.12 mph88%29.83 "HgN/A
8:50 AM57 °FPassing clouds.12 mph88%29.83 "HgN/A
8:20 AM55 °FPassing clouds.10 mph94%29.80 "HgN/A
7:50 AM54 °FScattered clouds.9 mph100%29.80 "HgN/A
7:20 AM54 °FScattered clouds.8 mph94%29.80 "HgN/A
6:50 AM54 °FLight rain. Partly cloudy.7 mph94%29.80 "HgN/A
6:20 AM54 °FLight rain. Passing clouds.7 mph94%29.80 "HgN/A
5:20 AM54 °FPassing clouds.7 mph94%29.77 "HgN/A
4:50 AM54 °FPassing clouds.7 mph100%29.77 "Hg6 mi
4:20 AM54 °FRain. Partly cloudy.3 mph100%29.77 "Hg4 mi
3:50 AM54 °FPartly cloudy.8 mph100%29.77 "HgN/A
3:20 AM54 °FPassing clouds.1 mph94%29.77 "HgN/A
2:50 AM52 °FPassing clouds.2 mph100%29.77 "HgN/A
2:20 AM54 °FPartly cloudy.2 mph94%29.77 "HgN/A
1:50 AM54 °FPassing clouds.2 mph94%29.77 "HgN/A
1:20 AM54 °FPassing clouds.3 mph94%29.77 "HgN/A
12:50 AM54 °FHeavy rain. Partly cloudy.5 mph100%29.77 "Hg4 mi
12:20 AM54 °FRain. Passing clouds.6 mph100%29.74 "Hg2 mi
11:50 PM
Wed, Sep 2
55 °FPartly cloudy.7 mph94%29.74 "HgN/A
11:20 PM55 °FRain. Partly cloudy.8 mph100%29.74 "Hg6 mi
10:50 PM55 °FPartly cloudy.8 mph100%29.71 "HgN/A
10:20 PM57 °FLight rain. Passing clouds.9 mph94%29.71 "HgN/A
9:50 PM57 °FHeavy rain. Passing clouds.9 mph94%29.71 "Hg4 mi
9:20 PM57 °FLight rain. Partly cloudy.7 mph94%29.71 "HgN/A
8:50 PM57 °FLight rain. Partly sunny.6 mph94%29.71 "HgN/A
8:20 PM57 °FDrizzle. Broken clouds.7 mph94%29.71 "HgN/A
7:50 PM57 °FScattered showers. Partly sunny.5 mph94%29.71 "HgN/A
7:20 PM57 °FScattered showers. Broken clouds.6 mph94%29.71 "HgN/A
6:50 PM59 °FScattered showers. Scattered clouds.6 mph88%29.68 "HgN/A
6:20 PM57 °FPartly sunny.7 mph94%29.71 "HgN/A
5:50 PM59 °FRain showers. Broken clouds.10 mph88%29.71 "HgN/A
5:20 PM63 °FRain showers. Broken clouds.10 mph73%29.68 "HgN/A
4:50 PM63 °FBroken clouds.13 mph68%29.68 "HgN/A
4:20 PM63 °FPartly sunny.9 mph77%29.68 "HgN/A
3:50 PM63 °FBroken clouds.13 mph73%29.68 "HgN/A
3:20 PM63 °FBroken clouds.9 mph77%29.68 "HgN/A
Weather by CustomWeather, © 2015

See weather overviewHow to use our weather pages